Waarnemingen

Advertentie
Mijn weer
Deelen, Nederland (6275): temperatuur & dauwpunt: 11.01.2018 08:00:00 - 17.01.2018 08:00:00 (CET)Deelen, Nederland (6275): temperatuur 5cm: 11.01.2018 08:00:00 - 17.01.2018 08:00:00 (CET)Deelen, Nederland (6275): windsnelheid & windstoten: 11.01.2018 08:00:00 - 17.01.2018 08:00:00 (CET)Deelen, Nederland (6275): windrichting: 11.01.2018 08:00:00 - 17.01.2018 08:00:00 (CET)Deelen, Nederland (6275): luchtdruk: 11.01.2018 08:00:00 - 17.01.2018 08:00:00 (CET)Deelen, Nederland (6275): zicht: 11.01.2018 08:00:00 - 17.01.2018 08:00:00 (CET)Deelen, Nederland (6275): neerslag: 11.01.2018 08:00:00 - 17.01.2018 08:00:00 (CET)
Datum & Tijd tt [°C] td [°C] tt 5cm [°C] ff [km/u] ff [kn] fx [km/u] fx [kn] dd ppp [hPa] vv [km] rr [mm]
17.01.2018 08:00:00 1,2 -0,1 0,8 25 13 - - W 995,6 11 -
17.01.2018 07:00:00 1,8 -0,1 0,8 18 10 43 23 W 994,1 10 0,2
17.01.2018 06:00:00 1,6 -0,7 0,8 15 8 32 18 WZW 993,0 10 0,0
17.01.2018 05:00:00 1,6 -0,2 0,7 18 10 36 19 WZW 992,2 10 0,0
17.01.2018 04:00:00 1,2 0,2 0,3 11 6 18 10 WZW 991,8 10 0,0
17.01.2018 03:00:00 2,0 0,7 1,4 15 8 29 16 W 991,2 10 0,1
17.01.2018 02:00:00 1,7 0,7 0,8 18 10 40 21 W 991,1 6 1,1
17.01.2018 01:00:00 2,0 1,0 1,7 5 3 25 14 NW 991,2 10 0,5
17.01.2018 00:00:00 2,9 1,4 2,5 21 11 40 21 ZW 991,5 9 0,3
16.01.2018 23:00:00 2,4 1,1 2,0 22 12 40 21 ZW 991,6 10 0,1
16.01.2018 22:00:00 2,6 0,3 1,2 21 11 32 18 ZZW 992,0 10 0,0
16.01.2018 21:00:00 2,1 0,4 1,0 13 7 22 12 ZZW 992,4 10 0,0
16.01.2018 20:00:00 1,7 0,5 1,0 13 7 25 14 ZW 992,6 10 0,0
16.01.2018 19:00:00 2,6 0,7 2,2 29 16 47 25 W 992,9 10 0,2
16.01.2018 18:00:00 3,0 0,4 2,2 15 8 29 16 ZW 992,9 10 0,0
16.01.2018 17:00:00 3,2 0,2 2,4 15 8 36 19 WZW 993,2 10 0,0
16.01.2018 16:00:00 4,9 1,0 4,5 16 9 40 21 WZW 992,7 10 0,5
16.01.2018 15:00:00 5,3 1,8 5,8 16 9 58 31 W 992,5 10 0,1
16.01.2018 14:00:00 5,3 1,4 4,1 18 10 47 25 W 992,2 41 0,0
16.01.2018 13:00:00 6,1 2,6 6,6 26 14 50 27 W 991,9 10 0,0
16.01.2018 12:00:00 4,9 2,4 4,4 26 14 43 23 W 991,8 10 0,0
16.01.2018 11:00:00 4,5 2,7 4,2 21 11 36 19 W 991,1 10 0,0
16.01.2018 10:00:00 3,4 1,6 2,8 16 9 54 29 W 990,4 10 2,0
16.01.2018 09:00:00 4,4 2,8 4,0 24 13 43 23 WZW 989,7 10 0,5
16.01.2018 08:00:00 4,5 2,5 4,1 26 14 47 25 WZW 989,4 10 0,0
16.01.2018 07:00:00 5,6 4,1 4,9 22 12 40 21 ZW 989,4 10 0,1
16.01.2018 06:00:00 5,5 4,1 5,0 29 16 47 25 ZW 989,4 10 0,2
16.01.2018 05:00:00 5,7 4,5 5,1 22 12 36 19 ZW 989,8 10 0,2
16.01.2018 04:00:00 5,0 4,0 4,3 21 11 32 18 ZZW 990,6 10 0,3
16.01.2018 03:00:00 4,7 3,0 4,3 34 18 54 29 WZW 991,3 10 0,3
16.01.2018 02:00:00 5,4 4,0 4,7 15 8 32 18 ZW 991,7 10 0,0
16.01.2018 01:00:00 6,2 4,9 5,9 21 11 32 18 WZW 992,1 10 0,0
16.01.2018 00:00:00 6,5 5,6 6,0 21 11 29 16 WZW 991,2 10 0,0
15.01.2018 23:00:00 6,7 5,8 6,3 16 9 36 19 W 990,7 10 0,9
15.01.2018 22:00:00 6,9 6,5 6,6 21 11 47 25 WZW 990,4 5 0,9
15.01.2018 21:00:00 6,2 5,5 5,8 31 17 50 27 ZZW 989,9 10 0,5
15.01.2018 20:00:00 5,5 4,7 5,2 31 17 58 31 ZZW 990,4 10 0,6
15.01.2018 19:00:00 5,2 4,1 4,7 31 17 54 29 Z 991,4 9 2,0
15.01.2018 18:00:00 5,4 4,0 5,0 31 17 58 31 Z 993,2 7 2,5
15.01.2018 17:00:00 5,7 4,7 5,3 34 18 54 29 Z 995,0 10 0,5
15.01.2018 16:00:00 5,5 4,6 5,2 34 18 58 31 Z 996,8 6 1,1
15.01.2018 15:00:00 5,8 4,4 5,4 31 17 54 29 Z 998,5 8 0,7
15.01.2018 14:00:00 6,0 4,0 5,6 34 18 58 31 Z 1000,5 19 1,0
15.01.2018 13:00:00 6,4 3,5 6,2 31 17 50 27 Z 1002,4 38 0,0
15.01.2018 12:00:00 5,7 3,1 5,3 26 14 40 21 Z 1004,9 18 0,0
15.01.2018 11:00:00 4,8 2,9 4,5 28 15 43 23 Z 1006,9 10 0,0
15.01.2018 10:00:00 4,3 2,6 4,0 28 15 50 27 ZZW 1008,5 9 0,0
15.01.2018 09:00:00 4,4 2,6 4,1 26 14 40 21 Z 1009,3 9 0,0
15.01.2018 08:00:00 4,1 2,2 3,7 21 11 32 18 Z 1010,1 9 0,0
15.01.2018 07:00:00 3,8 1,6 3,5 21 11 32 18 Z 1011,1 10 0,0
15.01.2018 06:00:00 3,2 1,1 2,8 21 11 32 18 Z 1012,0 9 0,0
15.01.2018 05:00:00 2,4 0,5 2,1 15 8 32 18 Z 1013,3 10 0,0
15.01.2018 04:00:00 2,3 0,3 1,9 13 7 25 14 Z 1014,0 10 0,0
15.01.2018 03:00:00 1,9 0,0 1,5 15 8 25 14 Z 1015,3 9 0,0
15.01.2018 02:00:00 1,6 -0,2 1,1 15 8 25 14 Z 1015,8 8 0,0
15.01.2018 01:00:00 1,5 -0,2 1,0 18 10 25 14 ZZO 1016,8 9 0,0
15.01.2018 00:00:00 1,4 -0,5 0,4 16 9 25 14 ZZO 1017,6 9 0,0
14.01.2018 23:00:00 1,0 -0,8 0,3 16 9 25 14 ZZO 1018,2 9 0,0
14.01.2018 22:00:00 1,0 -1,0 0,0 16 9 25 14 ZZO 1018,6 10 0,0
14.01.2018 21:00:00 1,5 -1,2 0,6 18 10 25 14 ZO 1018,8 10 0,0
14.01.2018 20:00:00 1,5 -1,2 0,7 16 9 22 12 ZO 1019,2 10 0,0
14.01.2018 19:00:00 1,6 -0,9 0,6 15 8 22 12 ZO 1019,5 10 0,0
14.01.2018 18:00:00 2,2 -0,6 1,1 11 6 18 10 ZO 1020,0 10 0,0
14.01.2018 17:00:00 3,1 -0,4 2,1 9 5 25 14 ZO 1020,1 10 0,0
14.01.2018 16:00:00 4,6 0,0 4,0 18 10 25 14 ZO 1019,9 10 0,0
14.01.2018 15:00:00 4,7 0,1 4,6 21 11 29 16 - 1020,0 10 0,0
14.01.2018 14:00:00 4,4 0,4 4,3 16 9 29 16 OZO 1020,2 10 0,0
14.01.2018 13:00:00 4,0 -0,1 4,1 16 9 29 16 ZO 1020,8 10 0,0
14.01.2018 12:00:00 3,8 0,3 3,8 16 9 25 14 OZO 1021,4 10 0,0
14.01.2018 11:00:00 2,8 -0,1 2,7 15 8 25 14 O 1021,8 10 0,0
14.01.2018 10:00:00 2,3 -0,2 2,1 13 7 25 14 O 1021,7 9 0,0
14.01.2018 09:00:00 2,2 -0,2 1,9 11 6 22 12 O 1021,9 9 0,0
14.01.2018 08:00:00 2,3 -0,2 2,0 15 8 25 14 - 1021,8 9 0,0
14.01.2018 07:00:00 2,4 0,0 2,2 9 5 22 12 O 1021,9 9 0,0
14.01.2018 06:00:00 2,6 0,1 2,3 13 7 22 12 O 1021,9 9 0,0
14.01.2018 05:00:00 2,7 0,4 2,4 15 8 25 14 ONO 1022,0 10 0,0
14.01.2018 04:00:00 3,3 -0,1 2,9 13 7 22 12 O 1022,2 10 0,0
14.01.2018 03:00:00 3,4 0,3 3,1 13 7 22 12 O 1022,3 9 0,0
14.01.2018 02:00:00 3,6 0,7 3,2 13 7 22 12 ONO 1022,4 9 0,0
14.01.2018 01:00:00 3,7 0,8 3,2 11 6 14 8 O 1022,6 10 0,0
14.01.2018 00:00:00 3,6 0,7 3,2 9 5 18 10 O 1023,2 10 0,0
13.01.2018 23:00:00 3,9 0,8 3,2 11 6 22 12 O 1023,4 10 0,0
13.01.2018 22:00:00 4,2 1,3 3,7 11 6 22 12 O 1023,5 10 0,0
13.01.2018 21:00:00 4,3 1,7 3,1 11 6 18 10 O 1023,7 10 0,0
13.01.2018 20:00:00 4,5 1,4 3,4 9 5 18 10 O 1023,6 10 0,0
13.01.2018 19:00:00 5,2 1,9 4,6 9 5 18 10 O 1023,8 10 0,0
13.01.2018 18:00:00 5,4 1,8 4,7 11 6 18 10 O 1024,0 10 0,0
13.01.2018 17:00:00 5,3 1,8 4,6 9 5 18 10 O 1024,0 10 0,0
13.01.2018 16:00:00 5,3 1,8 4,9 15 8 32 18 OZO 1024,0 10 0,0
13.01.2018 15:00:00 5,6 3,6 5,5 16 9 25 14 ZO 1024,3 7 0,0
13.01.2018 14:00:00 5,5 4,2 5,5 11 6 18 10 OZO 1024,7 6 0,0
13.01.2018 13:00:00 5,4 4,2 5,3 9 5 14 8 OZO 1025,3 5 0,0
13.01.2018 12:00:00 5,1 4,3 5,0 9 5 18 10 OZO 1025,7 3,9 0,0
13.01.2018 11:00:00 4,5 4,2 4,5 11 6 14 8 OZO 1026,0 2,4 0,0
13.01.2018 10:00:00 4,1 4,0 4,1 9 5 14 8 OZO 1025,8 1,1 0,0
13.01.2018 09:00:00 3,9 3,7 3,8 9 5 14 8 OZO 1025,5 0,3 0,0
13.01.2018 08:00:00 3,9 3,7 3,9 8 4 18 10 OZO 1025,5 0,6 0,0
13.01.2018 07:00:00 4,0 3,8 3,9 9 5 18 10 OZO 1025,8 1,2 0,0
13.01.2018 06:00:00 3,9 3,8 3,7 8 4 14 8 OZO 1025,9 1,5 0,0
13.01.2018 05:00:00 3,8 3,6 3,7 5 3 11 6 O 1026,0 1,0 0,0
13.01.2018 04:00:00 3,7 3,5 3,6 4 2 7 4 - 1026,3 2,0 0,0
13.01.2018 03:00:00 3,6 3,2 3,4 5 3 11 6 O 1026,9 3,5 0,0
13.01.2018 02:00:00 3,3 3,0 3,1 5 3 11 6 O 1026,9 4,4 0,0
13.01.2018 01:00:00 3,6 3,0 3,4 5 3 7 4 O 1027,3 6 0,0
13.01.2018 00:00:00 3,7 3,3 3,5 5 3 7 4 O 1027,2 5 0,0
12.01.2018 23:00:00 3,8 3,5 3,6 5 3 11 6 O 1027,2 5 0,0
12.01.2018 22:00:00 3,8 3,4 3,6 8 4 11 6 OZO 1027,4 5 0,0
12.01.2018 21:00:00 3,9 3,5 3,7 8 4 11 6 O 1027,5 8 0,0
12.01.2018 20:00:00 4,0 3,6 3,8 5 3 11 6 OZO 1027,2 8 0,0
12.01.2018 19:00:00 4,1 3,7 3,9 8 4 11 6 OZO 1027,0 8 0,0
12.01.2018 18:00:00 4,2 3,8 4,1 8 4 14 8 OZO 1027,0 8 0,0
12.01.2018 17:00:00 4,5 3,9 4,4 8 4 11 6 O 1026,8 9 0,0
12.01.2018 16:00:00 5,0 4,3 5,1 4 2 7 4 - 1026,7 10 0,0
12.01.2018 15:00:00 4,8 4,1 4,8 4 2 7 4 ZZW 1026,5 10 0,0
12.01.2018 14:00:00 4,7 4,1 4,8 4 2 7 4 - 1026,4 7 0,0
12.01.2018 13:00:00 4,3 4,0 4,5 2 1 4 2 NW 1026,7 6 0,0
12.01.2018 12:00:00 4,0 3,6 4,4 2 1 4 2 - 1026,9 5 0,0
12.01.2018 11:00:00 3,7 3,6 3,9 2 1 7 4 - 1027,2 0,2 0,0
12.01.2018 10:00:00 3,6 3,5 3,7 4 2 4 2 NO 1026,8 0,2 0,0
12.01.2018 09:00:00 3,6 3,4 3,6 4 2 7 4 - 1026,3 2,1 0,0
12.01.2018 08:00:00 3,6 3,4 3,5 4 2 7 4 N 1025,8 1,9 0,0
12.01.2018 07:00:00 3,6 3,4 3,5 4 2 11 6 NNW 1025,4 1,9 0,0
12.01.2018 06:00:00 3,6 3,4 3,5 4 2 7 4 NNW 1025,1 1,9 0,0
12.01.2018 05:00:00 3,6 3,5 3,5 5 3 7 4 NNW 1024,9 1,9 0,0
12.01.2018 04:00:00 3,5 3,3 3,3 4 2 7 4 - 1024,8 1,0 0,0
12.01.2018 03:00:00 3,3 3,1 3,1 4 2 7 4 - 1024,6 0,4 0,0
12.01.2018 02:00:00 3,1 3,0 2,8 5 3 7 4 NNW 1024,3 0,3 0,0
12.01.2018 01:00:00 2,7 2,5 2,3 4 2 7 4 N 1024,1 0,2 0,0
12.01.2018 00:00:00 2,4 2,2 2,3 5 3 11 6 N 1023,7 0,2 0,0
11.01.2018 23:00:00 2,5 2,3 2,3 8 4 11 6 N 1023,4 0,2 0,0
11.01.2018 22:00:00 1,9 1,7 1,5 5 3 7 4 NNW 1023,1 0,2 0,0
11.01.2018 21:00:00 0,5 0,2 -0,8 4 2 7 4 NNW 1022,6 0,2 0,0
11.01.2018 20:00:00 1,8 1,6 -0,1 5 3 7 4 NW 1021,9 0,5 0,0
11.01.2018 19:00:00 3,5 3,3 1,6 4 2 11 6 N 1020,9 1,9 0,0
11.01.2018 18:00:00 6,3 5,7 5,5 9 5 11 6 N 1020,5 3,2 0,0
11.01.2018 17:00:00 7,2 6,4 6,7 8 4 7 4 NNW 1019,9 6 0,0
11.01.2018 16:00:00 8,1 6,2 7,9 8 4 11 6 N 1019,1 8 0,0
11.01.2018 15:00:00 8,0 6,1 8,5 2 1 11 6 - 1018,5 6 0,0
11.01.2018 14:00:00 7,0 6,0 7,4 9 5 11 6 N 1017,9 5 0,0
11.01.2018 13:00:00 7,6 6,8 8,0 7 4 11 6 NO 1017,6 6 0,0
11.01.2018 12:00:00 7,3 7,0 7,4 5 3 7 4 NNO 1017,2 2,8 0,0
11.01.2018 11:00:00 6,4 6,3 6,4 2 1 4 2 - 1016,9 2,0 0,0
11.01.2018 10:00:00 6,0 5,9 5,9 2 1 7 4 N 1016,2 1,7 0,0
11.01.2018 09:00:00 5,3 5,1 5,1 2 1 4 2 ZZW 1015,3 1,2 0,0
11.01.2018 08:00:00 5,3 5,2 5,2 2 1 4 2 NO 1014,4 0,6 0,0

tt = temperatuur
td = dauwpunt
tt 5cm = temperatuur 5cm
ff = windsnelheid
fx = windstoten
dd = windrichting
ppp = luchtdruk
vv = zicht
rr = neerslag

Weerstations in de omgeving